OBJECT AF

基本信息
目录编号:
52423
目录名称:
OBJECT AF
国际标识:
2022-047AF
轨道中心:
EARTH
物体状态:
已陨落(2024-10-12)
发射日期:
2022-05-02 UTC
国别:
(TBD)
轨道信息
数据来源: 国际轨道数据
星历时间: 2024-10-12T15:45:17+0800
半长轴: 6537.001km
偏心率: 0.0011355
轨道倾角: 97.341°
近地点辐角: 271.945°
升交点赤经: 18.683°
平近点角: 88.055°
近地点: 151.443km
远地点: 166.289km
周期: 87.665分钟
每日圈数: 16.426118
详细信息
发射场:
RLLC
轨道高度:
LEO
数据来源:
AOE Integration Group
参考系:
TEME
时间系统:
UTC
历元类型:
SGP4
2D轨道图
3D轨道图
轨道高度分析图
轨道倾角分析图
轨道综合分析图
查看轨道综合分析图